TimeEST,TemperatureF,Dew PointF,Humidity,Sea Level PressureIn,VisibilityMPH,Wind Direction,Wind SpeedMPH,Gust SpeedMPH,PrecipitationIn,Events,Conditions,WindDirDegrees,DateUTC
12:54 AM,23.0,10.9,60,29.97,10.0,WSW,10.4,-,N/A,,Scattered Clouds,240,2013-01-04 05:54:00
1:54 AM,23.0,12.0,63,29.97,10.0,WSW,9.2,-,N/A,,Scattered Clouds,250,2013-01-04 06:54:00
2:54 AM,24.1,12.9,62,29.96,10.0,WSW,8.1,-,N/A,,Scattered Clouds,250,2013-01-04 07:54:00
3:54 AM,25.0,14.0,63,29.95,10.0,West,9.2,-,N/A,,Scattered Clouds,260,2013-01-04 08:54:00
4:54 AM,23.0,14.0,68,29.95,10.0,SW,9.2,-,N/A,,Scattered Clouds,230,2013-01-04 09:54:00
5:54 AM,25.0,16.0,69,29.95,10.0,SW,6.9,-,N/A,,Scattered Clouds,230,2013-01-04 10:54:00
6:54 AM,27.0,17.1,66,29.95,10.0,West,12.7,23.0,N/A,,Scattered Clouds,260,2013-01-04 11:54:00
7:54 AM,28.9,19.0,67,29.96,10.0,West,17.3,24.2,N/A,,Mostly Cloudy,260,2013-01-04 12:54:00
8:54 AM,30.0,19.0,64,29.96,10.0,West,13.8,21.9,N/A,,Mostly Cloudy,260,2013-01-04 13:54:00
9:54 AM,33.1,21.0,61,29.95,10.0,West,13.8,-,N/A,,Mostly Cloudy,260,2013-01-04 14:54:00
10:54 AM,35.1,19.9,54,29.92,10.0,West,15.0,25.3,N/A,,Mostly Cloudy,270,2013-01-04 15:54:00
11:54 AM,36.0,19.0,50,29.87,10.0,West,18.4,31.1,N/A,,Mostly Cloudy,270,2013-01-04 16:54:00
12:54 PM,37.0,19.9,50,29.84,10.0,WSW,17.3,26.5,N/A,,Mostly Cloudy,250,2013-01-04 17:54:00
1:54 PM,37.0,19.9,50,29.81,10.0,WSW,18.4,27.6,N/A,,Mostly Cloudy,250,2013-01-04 18:54:00
2:54 PM,37.0,21.0,52,29.82,10.0,WSW,16.1,-,N/A,,Mostly Cloudy,240,2013-01-04 19:54:00
3:54 PM,36.0,21.0,55,29.83,10.0,WSW,18.4,26.5,N/A,,Mostly Cloudy,240,2013-01-04 20:54:00
4:54 PM,36.0,21.9,57,29.83,10.0,SW,12.7,-,N/A,,Mostly Cloudy,230,2013-01-04 21:54:00
5:54 PM,36.0,21.9,57,29.83,10.0,WSW,11.5,-,N/A,,Overcast,240,2013-01-04 22:54:00
6:54 PM,35.1,21.9,59,29.84,10.0,SW,12.7,-,N/A,,Mostly Cloudy,230,2013-01-04 23:54:00
7:54 PM,34.0,21.0,59,29.85,10.0,SW,11.5,-,N/A,,Partly Cloudy,230,2013-01-05 00:54:00
8:54 PM,33.1,21.0,61,29.85,10.0,WSW,11.5,-,N/A,,Partly Cloudy,240,2013-01-05 01:54:00
9:54 PM,32.0,19.9,61,29.86,10.0,SW,12.7,-,N/A,,Scattered Clouds,230,2013-01-05 02:54:00
10:54 PM,32.0,21.0,64,29.86,10.0,SW,12.7,-,N/A,,Overcast,230,2013-01-05 03:54:00
11:54 PM,30.9,19.9,64,29.85,10.0,SW,11.5,-,N/A,,Mostly Cloudy,230,2013-01-05 04:54:00